[[[{"header":{"parameterUnit":"kt","parameterCategory":2,"dx":1,"dy":1,"la1":30.253999710083008,"la2":30.299108505249023,"lo1":-89.0895004272461,"lo2":-89.04439544677734,"nx":28,"ny":28,"refTime":"2022-10-01T21:00:00:Z","depth":0,"parameterNumber":1,"parameterNumberName":"U-component_of_WINDS"},"data":[1.7939,1.8008,1.8035,1.8128,1.8169,1.8239,1.8272,1.832,1.8365,1.8454,1.8511,1.8547,1.8605,1.8682,1.8747,1.8763,1.879,1.8796,1.8813,1.8758,1.8752,1.8747,1.8732,1.88,1.88,1.8868,1.8868,1.8869,1.7903,1.7942,1.7998,1.8071,1.812,1.8132,1.8192,1.8233,1.8296,1.8351,1.8407,1.8488,1.8556,1.8613,1.8685,1.8722,1.8733,1.874,1.8739,1.8749,1.869,1.8674,1.8731,1.8731,1.8731,1.8731,1.8731,1.8731,1.7845,1.7884,1.7943,1.8004,1.8048,1.8097,1.8141,1.8183,1.8239,1.8313,1.8335,1.8407,1.8469,1.8568,1.8608,1.8668,1.8665,1.8682,1.8687,1.8692,1.8694,1.86,1.8681,1.8681,1.8681,1.8681,1.8681,0,1.7811,1.783,1.7884,1.7947,1.7993,1.8045,1.8096,1.8124,1.8176,1.822,1.8288,1.8332,1.842,1.8489,1.8561,1.8599,1.8618,1.8621,1.8634,1.8626,1.8611,1.8624,1.853,1.8619,1.8619,1.8618,1.8618,1.8618,1.7757,1.7798,1.7871,1.7906,1.794,1.7995,1.8034,1.8076,1.8116,1.8187,1.8222,1.8289,1.8346,1.8451,1.8502,1.8568,1.8578,1.861,1.8588,1.858,1.8584,1.8582,1.8588,1.8614,1.8614,1.8615,1.8615,0,1.7725,1.7766,1.7839,1.7906,1.7925,1.7968,1.8027,1.8069,1.8104,1.8168,1.8185,1.8241,1.8307,1.8352,1.8436,1.8459,1.8538,1.8543,1.8518,1.8523,1.8558,1.8556,1.8658,1.8676,1.8602,1.8602,1.8603,0,1.7697,1.7749,1.7808,1.7848,1.7909,1.7947,1.8008,1.8043,1.8094,1.8144,1.8169,1.8216,1.8265,1.832,1.8352,1.8424,1.8438,1.8461,1.8469,1.846,1.8458,1.8484,1.8482,1.8481,1.8481,1.848,1.848,0,1.7644,1.7735,1.7799,1.7827,1.7903,1.7933,1.7967,1.8023,1.8061,1.8116,1.8142,1.8205,1.824,1.8289,1.833,1.8314,1.8417,1.8403,1.844,1.8439,1.8462,1.846,1.8538,1.8479,1.8479,1.8479,1.8478,0,1.7627,1.7679,1.7764,1.783,1.7852,1.7894,1.7957,1.8003,1.806,1.8082,1.8127,1.8149,1.8211,1.8196,1.8284,1.8253,1.8287,1.8313,1.8316,1.8327,1.8308,1.835,1.8417,1.8428,1.8335,1.8334,1.8333,0,1.7558,1.7653,1.7686,1.7766,1.7816,1.7841,1.7889,1.7937,1.797,1.802,1.8057,1.8113,1.811,1.8134,1.8172,1.8214,1.8254,1.8209,1.8287,1.8289,1.8274,1.8335,1.8335,1.8397,1.8318,1.832,1.8321,0,1.7509,1.7597,1.7609,1.7642,1.7709,1.7751,1.7805,1.7868,1.7899,1.7949,1.7999,1.8076,1.8079,1.8117,1.8141,1.8178,1.8228,1.8175,1.8177,1.8186,1.8312,1.8313,1.8323,1.8237,1.8239,1.824,1.8309,0,1.748,1.7531,1.7563,1.7632,1.767,1.7721,1.7764,1.7799,1.7817,1.785,1.7921,1.797,1.8035,1.8056,1.8074,1.8143,1.8139,1.8139,1.8129,1.8167,1.8192,1.8201,1.809,1.809,1.8089,1.8089,0,0,1.7406,1.7478,1.751,1.7561,1.7596,1.7618,1.767,1.7706,1.7778,1.7802,1.7796,1.7913,1.7953,1.8035,1.805,1.8075,1.8093,1.8076,1.8148,1.8154,1.816,1.8185,1.8194,1.8089,1.8089,1.8089,1.8089,0,1.7404,1.7439,1.7487,1.7525,1.7582,1.7613,1.7625,1.7686,1.7709,1.7775,1.7795,1.7842,1.7932,1.7974,1.8007,1.8067,1.8081,1.8083,1.8103,1.8145,1.8152,1.8157,1.8183,1.8191,1.8089,1.8089,1.8089,0,1.7365,1.7408,1.7434,1.7509,1.7547,1.7596,1.7595,1.7646,1.7684,1.7707,1.7773,1.7806,1.7864,1.7934,1.7966,1.7962,1.8067,1.804,1.8041,1.8046,1.809,1.8098,1.8104,1.8016,1.8016,1.8016,0,0,1.7358,1.7403,1.7462,1.7511,1.7534,1.7579,1.7609,1.763,1.7679,1.7699,1.7741,1.779,1.7844,1.7878,1.793,1.7999,1.8017,1.8029,1.8032,1.8035,1.8041,1.8086,1.8093,1.8014,1.8014,1.8014,0,0,1.7355,1.7423,1.7432,1.7494,1.754,1.7602,1.7632,1.7645,1.7695,1.7694,1.7732,1.7747,1.7812,1.7844,1.7817,1.7928,1.7916,1.7923,1.7905,1.791,1.7913,1.7905,1.7823,0,0,0,0,0,1.7373,1.7415,1.7422,1.7438,1.7532,1.7598,1.761,1.7642,1.7633,1.7657,1.7695,1.7705,1.7838,1.7815,1.7832,1.7862,1.7993,1.7997,1.8,1.7993,1.7998,1.8002,0,0,0,0,0,0,1.738,1.74,1.7421,1.7483,1.7505,1.7596,1.7589,1.7599,1.7632,1.7633,1.7698,1.7707,1.7737,1.7809,1.7824,1.7851,1.7819,1.7994,1.7998,1.8,1.7995,1.7999,1.8002,0,0,0,0,0,1.7385,1.7401,1.7543,1.7483,1.7502,1.7554,1.7588,1.7596,1.7622,1.7679,1.7689,1.7643,1.7736,1.7751,1.7818,1.7844,1.7808,1.7814,1.7997,1.7999,1.8001,1.7997,0,0,0,0,0,0,1.7389,1.741,1.7547,1.7554,1.7468,1.7549,1.7563,1.7593,1.7667,1.7678,1.7626,1.7626,1.7737,1.7748,1.776,1.7839,1.78,1.7806,1.7809,1.7998,1.8,1.8002,0,0,0,0,0,0,1.7402,1.7416,1.7551,1.7531,1.7536,1.7545,1.7557,1.7617,1.7668,1.761,1.7612,1.7625,1.7721,1.7746,1.7755,1.7849,1.7794,1.7799,1.7803,1.7805,1.8,1.8002,0,0,0,0,0,0,1.7408,1.7421,1.7529,1.7533,1.7537,1.7618,1.7599,1.7694,1.7649,1.7607,1.7646,1.7644,1.7719,1.7728,1.7752,1.7842,1.7847,1.7794,1.7798,1.78,1.7802,0,0,0,0,0,0,0,1.7414,1.7324,1.7505,1.7535,1.7538,1.7619,1.7621,1.7622,1.7648,1.7647,1.7646,1.7645,1.7764,1.777,1.7775,1.7836,0,0,1.7794,1.7796,0,0,0,0,0,0,0,0,1.732,1.7323,1.7506,1.7507,1.7508,1.7619,1.762,1.7622,1.7648,1.7647,1.7646,1.7645,1.7765,1.777,1.7775,0,0,0,0,0,0,0,0,0,0,0,0,0,0,0,1.7506,1.7507,0,1.7619,1.762,1.7622,1.7648,1.7647,1.7646,1.7646,1.7767,1.7771,1.7774,0,0,0,0,0,0,0,0,0,0,0,0,0,0,0,0,0,0,0,0,0,0,0,0,0,0,0,0,0,0,0,0,0,0,0,0,0,0,0,0,0,0,0,0,0,0,0,0,0,0,0,0,0,0,0,0,0,0,0,0,0,0,0,0,0,0,0,0,0]}],[{"header":{"parameterUnit":"kt","parameterCategory":2,"dx":1,"dy":1,"la1":30.253999710083008,"la2":30.299108505249023,"lo1":-89.0895004272461,"lo2":-89.04439544677734,"nx":28,"ny":28,"refTime":"2022-10-01T21:00:00:Z","depth":0,"parameterNumber":2,"parameterNumberName":"V-component_of_WINDS"},"data":[-6.5957,-6.5922,-6.5959,-6.5934,-6.5963,-6.5951,-6.5958,-6.5971,-6.5989,-6.5978,-6.5977,-6.6007,-6.6036,-6.6041,-6.604,-6.6052,-6.6048,-6.6011,-6.6031,-6.6169,-6.619,-6.621,-6.6222,-6.601,-6.601,-6.5883,-6.5882,-6.5881,-6.606,-6.6088,-6.6086,-6.6108,-6.6107,-6.6166,-6.6186,-6.6179,-6.6166,-6.6188,-6.6189,-6.618,-6.6176,-6.6218,-6.6219,-6.62,-6.6225,-6.6198,-6.6198,-6.6201,-6.6351,-6.6362,-6.6178,-6.6178,-6.6178,-6.6178,-6.6178,-6.6178,-6.6256,-6.6233,-6.6268,-6.6265,-6.6286,-6.6299,-6.6283,-6.6322,-6.6317,-6.6325,-6.6366,-6.635,-6.6376,-6.6392,-6.6405,-6.6392,-6.6428,-6.6406,-6.6401,-6.6394,-6.6382,-6.656,-6.6394,-6.6394,-6.6395,-6.6396,-6.6396,0,-6.6409,-6.6442,-6.6441,-6.6452,-6.6452,-6.6462,-6.6477,-6.6467,-6.6543,-6.6535,-6.6527,-6.6528,-6.6527,-6.6521,-6.6528,-6.6546,-6.6599,-6.6609,-6.6594,-6.6572,-6.6554,-6.6561,-6.6802,-6.6612,-6.6614,-6.6615,-6.6616,-6.6617,-6.6607,-6.6576,-6.6629,-6.6624,-6.6641,-6.663,-6.6631,-6.67,-6.6697,-6.6723,-6.6697,-6.6693,-6.6693,-6.667,-6.6709,-6.6707,-6.6732,-6.6656,-6.6731,-6.6715,-6.6728,-6.6728,-6.6725,-6.6638,-6.6635,-6.6633,-6.6631,0,-6.6715,-6.6774,-6.6736,-6.679,-6.6803,-6.6765,-6.681,-6.6788,-6.6827,-6.6801,-6.6798,-6.6856,-6.6845,-6.6897,-6.6893,-6.692,-6.6855,-6.6881,-6.6848,-6.6855,-6.6791,-6.6795,-6.6576,-6.655,-6.6773,-6.677,-6.6769,0,-6.6905,-6.686,-6.695,-6.6924,-6.6877,-6.6948,-6.6899,-6.6926,-6.6951,-6.6931,-6.7004,-6.6983,-6.7054,-6.704,-6.7079,-6.7036,-6.7036,-6.7052,-6.7063,-6.7044,-6.7041,-6.7038,-6.7047,-6.709,-6.7091,-6.7092,-6.7093,0,-6.7065,-6.706,-6.7021,-6.7028,-6.7079,-6.7058,-6.7077,-6.7104,-6.7102,-6.7108,-6.7107,-6.7108,-6.7107,-6.7106,-6.7156,-6.7206,-6.7105,-6.7183,-6.7122,-6.712,-6.7093,-6.7093,-6.6891,-6.7094,-6.7095,-6.7095,-6.7095,0,-6.7225,-6.7234,-6.7168,-6.7212,-6.7207,-6.7179,-6.7187,-6.7176,-6.7198,-6.7223,-6.7227,-6.728,-6.7247,-6.7321,-6.7277,-6.7326,-6.7321,-6.7335,-6.7332,-6.7328,-6.7408,-6.7283,-6.7088,-6.7068,-6.7331,-6.7333,-6.7334,0,-6.7392,-6.7341,-6.7401,-6.7335,-6.7318,-6.7402,-6.7373,-6.739,-6.7421,-6.7409,-6.7442,-6.7425,-6.7492,-6.7493,-6.7465,-6.7496,-6.7431,-6.7506,-6.7482,-6.748,-6.7472,-6.7294,-6.725,-6.7126,-6.736,-6.7357,-6.7355,0,-6.7528,-6.7591,-6.7575,-6.7586,-6.7623,-6.7607,-6.7573,-6.7575,-6.7564,-6.7575,-6.7546,-6.7525,-6.7574,-6.7575,-6.7616,-6.7584,-6.7477,-6.7639,-6.764,-6.7606,-6.7378,-6.7337,-6.7316,-6.7512,-6.7509,-6.7506,-6.7376,0,-6.7755,-6.7736,-6.7695,-6.7716,-6.7714,-6.7675,-6.7733,-6.7722,-6.7765,-6.7796,-6.7755,-6.7779,-6.7775,-6.7766,-6.7804,-6.7714,-6.7736,-6.7786,-6.7858,-6.7741,-6.77,-6.7683,-6.7916,-6.7919,-6.7921,-6.7922,0,0,-6.7898,-6.7872,-6.7937,-6.7908,-6.7909,-6.7995,-6.7948,-6.7959,-6.7976,-6.7974,-6.8016,-6.7988,-6.8004,-6.7946,-6.7915,-6.7913,-6.7901,-6.7938,-6.7797,-6.7783,-6.777,-6.7724,-6.7706,-6.7926,-6.7927,-6.7928,-6.7928,0,-6.7992,-6.8014,-6.7969,-6.7984,-6.8009,-6.8046,-6.8035,-6.8072,-6.809,-6.805,-6.8117,-6.8098,-6.8071,-6.808,-6.8081,-6.7949,-6.7997,-6.7943,-6.7854,-6.7816,-6.7799,-6.7784,-6.7736,-6.7718,-6.7933,-6.7933,-6.7933,0,-6.8134,-6.8165,-6.8149,-6.8158,-6.8173,-6.8152,-6.8245,-6.8217,-6.8201,-6.829,-6.8248,-6.8268,-6.8283,-6.8221,-6.8195,-6.8231,-6.8081,-6.8138,-6.8126,-6.8123,-6.8089,-6.8068,-6.805,-6.8289,-6.829,-6.8291,0,0,-6.8207,-6.819,-6.8241,-6.8182,-6.8188,-6.8241,-6.8235,-6.8276,-6.8291,-6.8295,-6.8321,-6.8331,-6.8317,-6.8305,-6.8294,-6.8219,-6.8225,-6.8179,-6.8163,-6.8149,-6.8138,-6.81,-6.808,-6.8294,-6.8295,-6.8295,0,0,-6.824,-6.8299,-6.834,-6.8279,-6.8293,-6.8336,-6.8296,-6.8346,-6.8342,-6.8352,-6.8416,-6.8421,-6.8364,-6.8379,-6.8426,-6.832,-6.839,-6.838,-6.8311,-6.8291,-6.8274,-6.827,-6.8518,0,0,0,0,0,-6.8366,-6.8293,-6.833,-6.8328,-6.8336,-6.8317,-6.8318,-6.8371,-6.8422,-6.8389,-6.8419,-6.8472,-6.8418,-6.846,-6.8456,-6.8402,-6.8345,-6.8336,-6.8327,-6.8221,-6.82,-6.8181,0,0,0,0,0,0,-6.8366,-6.8363,-6.8332,-6.8371,-6.8374,-6.832,-6.8417,-6.8429,-6.8426,-6.8437,-6.8465,-6.8472,-6.8514,-6.8466,-6.8461,-6.8409,-6.852,-6.8341,-6.8334,-6.8327,-6.8214,-6.8196,-6.8181,0,0,0,0,0,-6.8366,-6.8364,-6.8364,-6.8373,-6.8375,-6.8429,-6.842,-6.8431,-6.8429,-6.8474,-6.8484,-6.847,-6.8512,-6.8511,-6.8463,-6.841,-6.8524,-6.8521,-6.8336,-6.833,-6.8325,-6.8205,0,0,0,0,0,0,-6.8366,-6.8373,-6.8365,-6.8368,-6.8404,-6.8433,-6.8439,-6.8432,-6.8467,-6.8476,-6.8482,-6.849,-6.8509,-6.8509,-6.8508,-6.8407,-6.8527,-6.8525,-6.8523,-6.8332,-6.8327,-6.8323,0,0,0,0,0,0,-6.8374,-6.8374,-6.8366,-6.8403,-6.841,-6.8436,-6.8442,-6.8408,-6.8466,-6.8473,-6.8482,-6.8485,-6.8509,-6.8507,-6.8506,-6.8451,-6.8529,-6.8527,-6.8526,-6.8525,-6.8328,-6.8324,0,0,0,0,0,0,-6.8375,-6.8375,-6.8403,-6.8408,-6.8415,-6.8446,-6.8407,-6.841,-6.8502,-6.847,-6.8511,-6.8515,-6.8505,-6.8506,-6.8505,-6.8449,-6.8451,-6.8529,-6.8528,-6.8527,-6.8526,0,0,0,0,0,0,0,-6.8376,-6.8363,-6.8351,-6.8413,-6.8419,-6.8391,-6.8391,-6.8392,-6.8503,-6.8506,-6.851,-6.8513,-6.8541,-6.8539,-6.8536,-6.8448,0,0,-6.8529,-6.8528,0,0,0,0,0,0,0,0,-6.8364,-6.8363,-6.8351,-6.8351,-6.8352,-6.8391,-6.8391,-6.8392,-6.8503,-6.8506,-6.8509,-6.8512,-6.854,-6.8538,-6.8537,0,0,0,0,0,0,0,0,0,0,0,0,0,0,0,-6.8351,-6.8351,0,-6.8391,-6.8391,-6.8392,-6.8504,-6.8506,-6.8509,-6.8511,-6.854,-6.8538,-6.8537,0,0,0,0,0,0,0,0,0,0,0,0,0,0,0,0,0,0,0,0,0,0,0,0,0,0,0,0,0,0,0,0,0,0,0,0,0,0,0,0,0,0,0,0,0,0,0,0,0,0,0,0,0,0,0,0,0,0,0,0,0,0,0,0,0,0,0,0,0]}]]]